[TLELIST] Archives

 

[list_settings.list_name] Current TLEs

November 25th 2010 PST

HST 1 20580U 90037B 10326.29371627 +.00000743 +00000-0 +43917-4 0 06790 2 20580 028.4707 287.6103 0003590 084.5178 275.5728 15.01100982928532 ISS (ZARYA) 1 25544U 98067A 10328.27758277 .00013999 00000-0 10438-3 0 3308 2 25544 051.6436 131.2981 0006949 238.0420 181.6032 15.73055844688655 CXO 1 25867U 99040B 10327.66666667 +.00000153 +00000-0 +00000-0 0 05391 2 25867 067.9957 044.9883 8389588 275.6111 350.9558 00.37800815006992 ____________________________________________________________________ These 2-Line ...Continue Reading

[list_settings.list_name] Current TLEs

November 24th 2010 PST

HST 1 20580U 90037B 10323.03585019 +.00000812 +00000-0 +49214-4 0 06783 2 20580 028.4711 308.8842 0003186 052.5111 307.5778 15.01097630928048 ISS (ZARYA) 1 25544U 98067A 10325.87820227 +.00015254 +00000-0 +11363-3 0 03175 2 25544 051.6433 143.5991 0007008 228.4065 274.7042 15.72990222688274 CXO 1 25867U 99040B 10325.04166667 +.00000213 +00000-0 +00000-0 0 05382 2 25867 067.9872 045.1353 8386321 275.6306 353.5109 00.37801807006983 ____________________________________________________________________ These 2-Line ...Continue Reading

[list_settings.list_name] Current TLEs

November 23rd 2010 PST

HST 1 20580U 90037B 10323.03585019 +.00000812 +00000-0 +49214-4 0 06783 2 20580 028.4711 308.8842 0003186 052.5111 307.5778 15.01097630928048 ISS (ZARYA) 1 25544U 98067A 10324.92556198 +.00014387 +00000-0 +10759-3 0 03111 2 25544 051.6444 148.4857 0006981 225.5872 279.3633 15.72958899688129 CXO 1 25867U 99040B 10325.04166667 +.00000213 +00000-0 +00000-0 0 05382 2 25867 067.9872 045.1353 8386321 275.6306 353.5109 00.37801807006983 ____________________________________________________________________ These 2-Line ...Continue Reading

[list_settings.list_name] Current TLEs

November 22nd 2010 PST

HST 1 20580U 90037B 10323.03585019 +.00000812 +00000-0 +49214-4 0 06783 2 20580 028.4711 308.8842 0003186 052.5111 307.5778 15.01097630928048 ISS (ZARYA) 1 25544U 98067A 10323.90075334 +.00017662 +00000-0 +13111-3 0 03053 2 25544 051.6438 153.7386 0007512 220.4784 237.4983 15.72935179687965 CXO 1 25867U 99040B 10325.04166667 +.00000213 +00000-0 +00000-0 0 05382 2 25867 067.9872 045.1353 8386321 275.6306 353.5109 00.37801807006983 ____________________________________________________________________ These 2-Line ...Continue Reading

[list_settings.list_name] Current TLEs

November 21st 2010 PST

HST 1 20580U 90037B 10322.23800227 .00000811 00000-0 49095-4 0 6770 2 20580 028.4711 314.0931 0003174 044.1313 315.9453 15.01096561927925 ISS (ZARYA) 1 25544U 98067A 10322.90334491 +.00014358 +00000-0 +10765-3 0 02997 2 25544 051.6438 158.8543 0007508 216.5892 349.7567 15.72895077687807 CXO 1 25867U 99040B 10322.41666667 .00000293 00000-0 00000+0 0 5360 2 25867 067.9700 045.3043 8386005 275.6242 356.1239 00.37807328 6975 ____________________________________________________________________ These 2-Line ...Continue Reading

[list_settings.list_name] Current TLEs

November 20th 2010 PST

HST 1 20580U 90037B 10322.23800227 .00000811 00000-0 49095-4 0 6770 2 20580 028.4711 314.0931 0003174 044.1313 315.9453 15.01096561927925 ISS (ZARYA) 1 25544U 98067A 10322.29145833 .00018412 00000-0 13679-3 0 2980 2 25544 051.6439 161.9899 0007603 212.9096 126.3632 15.72878646687703 CXO 1 25867U 99040B 10322.41666667 .00000293 00000-0 00000+0 0 5360 2 25867 067.9700 045.3043 8386005 275.6242 356.1239 00.37807328 6975 ____________________________________________________________________ These 2-Line ...Continue Reading

[list_settings.list_name] Current TLEs

November 19th 2010 PST

HST 1 20580U 90037B 10322.23800227 .00000811 00000-0 49095-4 0 6770 2 20580 028.4711 314.0931 0003174 044.1313 315.9453 15.01096561927925 ISS (ZARYA) 1 25544U 98067A 10322.29145833 .00018412 00000-0 13679-3 0 2980 2 25544 051.6439 161.9899 0007603 212.9096 126.3632 15.72878646687703 CXO 1 25867U 99040B 10322.41666667 .00000293 00000-0 00000+0 0 5360 2 25867 067.9700 045.3043 8386005 275.6242 356.1239 00.37807328 6975 ____________________________________________________________________ These 2-Line ...Continue Reading

[list_settings.list_name] Current TLEs

November 18th 2010 PST

HST 1 20580U 90037B 10320.17690437 .00000887 00000-0 54910-4 0 6765 2 20580 028.4708 327.5486 0003083 020.2478 339.8652 15.01094356927613 ISS (ZARYA) 1 25544U 98067A 10321.34402778 -.00035052 00000-0 -24957-3 0 2914 2 25544 051.6444 166.8493 0007166 210.3266 160.6832 15.72814062687567 CXO 1 25867U 99040B 10319.79166667 .00000320 00000-0 00000+0 0 5341 2 25867 067.9528 045.4719 8384399 275.5983 358.8068 00.37808999 6962 ____________________________________________________________________ These 2-Line ...Continue Reading

[list_settings.list_name] Current TLEs

November 17th 2010 PST

HST 1 20580U 90037B 10320.17690437 .00000887 00000-0 54910-4 0 6765 2 20580 028.4708 327.5486 0003083 020.2478 339.8652 15.01094356927613 ISS (ZARYA) 1 25544U 98067A 10320.21694566 .00036599 00000-0 26748-3 0 2855 2 25544 051.6435 172.6244 0008047 203.4861 261.5457 15.72819771687385 CXO 1 25867U 99040B 10319.79166667 .00000320 00000-0 00000+0 0 5341 2 25867 067.9528 045.4719 8384399 275.5983 358.8068 00.37808999 6962 ____________________________________________________________________ These 2-Line ...Continue Reading

[list_settings.list_name] Current TLEs

November 16th 2010 PST

HST 1 20580U 90037B 10317.18496386 .00000589 00000-0 32150-4 0 6759 2 20580 028.4709 347.0880 0003076 343.6403 016.4085 15.01088347927162 ISS (ZARYA) 1 25544U 98067A 10319.37245370 .00027288 00000-0 20045-3 0 2797 2 25544 051.6454 176.9487 0007589 200.1792 160.0554 15.72866268687259 CXO 1 25867U 99040B 10319.79166667 .00000320 00000-0 00000+0 0 5341 2 25867 067.9528 045.4719 8384399 275.5983 358.8068 00.37808999 6962 ____________________________________________________________________ These 2-Line ...Continue Reading
  • This mailing list is a public mailing list - anyone may join or leave, at any time.
  • This mailing list is announce-only.

International Space Station (ISS) / Hubble Space Telescope (HST) / Chandra X-Ray Observatory Orbital Data via EMAIL

Privacy Policy:

Private list